Retour au catalogue

COSMOS 2087

ActifMilitaireHEO
NORAD 20707·PAYLOAD·🇷🇺 Russia

Lancé Jul 25, 1990 depuis Plesetsk Cosmodrome

Loading…

Prochains Passages (prochaines 24 heures)

TLE

FraisSource: Space-Track

Époque: Sep 13, 2026, 04:23 UTC

1 20707U 90064A   26256.18326792 -.00000789  00000-0  00000-0 0  9999
2 20707  67.7578 179.6866 6315740  22.8930 355.8704  2.00388651264592

Suivez COSMOS 2087 en temps réel avec AllMySat

Download on the App Store